1506193200.81,38168,14.19,73790.5,0.29,-0.73,-0.69,0,*49
1506193202.01,38169,14.19,73790.0,0.29,-0.69,-0.69,0,*43
1506193203.21,38170,14.19,73788.0,0.29,-0.69,-0.81,0,*4D
1506193204.38,38171,14.19,73788.0,0.27,-0.69,-0.69,0,*44
1506193205.56,38172,14.19,73786.0,0.27,-0.69,-0.69,0,*47
1506193206.73,38173,14.19,73788.3,0.27,-0.61,-0.69,0,*4E
1506193207.92,38174,14.19,73788.0,0.29,-0.61,-0.69,0,*47
1506193209.11,38175,14.19,73788.3,0.29,-0.61,-0.69,0,*46
1506193210.31,38176,14.19,73790.0,0.29,-0.69,-0.69,0,*4D
1506193211.49,38177,14.19,73786.3,0.27,-0.69,-0.69,0,*42
1506193212.67,38178,14.19,73784.0,0.27,-0.69,-0.73,0,*46
1506193213.85,38179,14.19,73788.3,0.27,-0.73,-0.81,0,*41
1506193215.03,38180,14.19,73790.5,0.27,-0.73,-0.69,0,*41
1506193216.2,38181,14.19,73790.8,0.27,-0.69,-0.61,0,*43
1506193217.37,38182,14.19,73790.8,0.27,-0.61,-0.73,0,*4B
1506193218.56,38183,14.19,73790.8,0.23,-0.73,-0.73,0,*4D
1506193219.73,38184,14.19,73790.8,0.27,-0.69,-0.61,0,*46
1506193220.91,38185,14.19,73790.3,0.23,-0.73,-0.73,0,*4B
1506193222.08,38186,14.19,73792.0,0.27,-0.61,-0.69,0,*44
1506193223.25,38187,14.19,73786.0,0.27,-0.69,-0.61,0,*45
1506193224.43,38188,14.19,73794.0,0.23,-0.65,-0.65,0,*46
1506193225.6,38189,14.19,73790.5,0.27,-0.69,-0.61,0,*4B
1506193226.76,38190,14.19,73790.5,0.27,-0.61,-0.61,0,*4B
1506193227.94,38191,14.19,73788.5,0.23,-0.65,-0.73,0,*49
1506193229.12,38192,14.19,73790.3,0.27,-0.69,-0.69,0,*49
1506193230.29,38193,14.19,73786.5,0.27,-0.69,-0.69,0,*48
1506193231.47,38194,14.19,73790.5,0.23,-0.65,-0.65,0,*4B
1506193232.64,38195,14.19,73790.8,0.27,-0.69,-0.69,0,*4E
1506193233.81,38196,14.19,73788.3,0.27,-0.61,-0.69,0,*45
1506193234.99,38197,14.19,73790.0,0.23,-0.69,-0.69,0,*48
1506193236.17,38198,14.19,73790.3,0.23,-0.73,-0.65,0,*40
1506193237.34,38199,14.19,73790.0,0.23,-0.73,-0.65,0,*41
1506193238.51,38200,14.19,73788.3,0.23,-0.65,-0.65,0,*45
1506193239.69,38201,14.19,73788.8,0.27,-0.57,-0.69,0,*4D
1506193240.87,38202,14.19,73786.5,0.23,-0.73,-0.73,0,*47
1506193242.05,38203,14.19,73790.5,0.27,-0.69,-0.73,0,*49
1506193243.23,38204,14.19,73790.0,0.27,-0.61,-0.73,0,*46
1506193244.4,38205,14.19,73790.5,0.27,-0.69,-0.69,0,*44
1506193245.59,38206,14.19,73790.0,0.23,-0.73,-0.73,0,*43
1506193246.77,38207,14.19,73788.5,0.23,-0.73,-0.73,0,*42
1506193247.94,38208,14.19,73788.3,0.23,-0.65,-0.65,0,*4D
1506193249.12,38209,14.19,73786.5,0.23,-0.73,-0.77,0,*48
1506193250.31,38210,14.19,73790.3,0.23,-0.73,-0.73,0,*44
1506193251.48,38211,14.19,73790.5,0.23,-0.73,-0.65,0,*42
1506193252.65,38212,14.19,73790.0,0.23,-0.65,-0.65,0,*46
1506193253.84,38213,14.19,73788.0,0.23,-0.73,-0.73,0,*47
1506193255.02,38214,14.19,73790.8,0.23,-0.73,-0.73,0,*40
1506193256.2,38215,14.19,73790.5,0.23,-0.73,-0.65,0,*46
1506193257.4,38216,14.19,73788.8,0.21,-0.77,-0.77,0,*40
1506193258.58,38217,14.19,73788.8,0.23,-0.73,-0.73,0,*43
1506193259.76,38218,14.25,73792.0,0.27,-0.69,-0.69,0,*48
1506193260.94,38219,14.19,73788.8,0.23,-0.73,-0.73,0,*4D
1506193262.13,38220,14.19,73790.0,0.23,-0.73,-0.73,0,*47
1506193263.31,38221,14.19,73790.0,0.23,-0.77,-0.73,0,*42
1506193264.49,38222,14.19,73788.5,0.23,-0.77,-0.73,0,*41
1506193265.67,38223,14.19,73788.8,0.23,-0.73,-0.73,0,*44
1506193266.89,38224,14.19,73788.5,0.21,-0.89,-0.81,0,*49
1506193268.1,38225,14.19,73788.5,0.21,-0.81,-0.77,0,*49
1506193269.3,38226,14.19,73788.8,0.21,-0.81,-0.77,0,*4A
1506193270.51,38227,14.19,73788.0,0.21,-0.77,-0.77,0,*42
1506193271.71,38228,14.19,73792.8,0.21,-0.81,-0.77,0,*44
1506193272.91,38229,14.19,73788.0,0.21,-0.77,-0.69,0,*43
1506193274.11,38230,14.19,73790.3,0.21,-0.69,-0.69,0,*44
1506193275.29,38231,14.19,73788.5,0.23,-0.73,-0.73,0,*47
1506193276.47,38232,14.19,73790.0,0.23,-0.65,-0.73,0,*43
1506193277.67,38233,14.19,73786.0,0.21,-0.77,-0.77,0,*47
1506193278.88,38234,14.19,73790.0,0.21,-0.81,-0.77,0,*49
1506193280.08,38235,14.19,73792.0,0.21,-0.77,-0.77,0,*41
1506193281.29,38236,14.19,73790.5,0.21,-0.81,-0.77,0,*4B
1506193282.48,38237,14.19,73792.5,0.21,-0.77,-0.81,0,*4A
1506193283.67,38238,14.19,73790.5,0.19,-0.81,-0.77,0,*4E
1506193284.85,38239,14.19,73792.8,0.19,-0.81,-0.77,0,*4F
1506193286.03,38240,14.19,73788.5,0.19,-0.69,-0.77,0,*47
1506193287.21,38241,14.19,73788.3,0.19,-0.77,-0.77,0,*49
1506193288.38,38242,14.19,73788.0,0.19,-0.77,-0.77,0,*4A
1506193289.56,38243,14.19,73784.8,0.19,-0.77,-0.81,0,*42
1506193290.74,38244,14.19,73790.3,0.19,-0.69,-0.77,0,*43
1506193291.92,38245,14.19,73790.3,0.19,-0.77,-0.77,0,*4D
1506193293.1,38246,14.19,73790.3,0.19,-0.77,-0.77,0,*4E
1506193294.3,38247,14.19,73790.8,0.21,-0.81,-0.77,0,*4D
1506193295.51,38248,14.19,73788.8,0.21,-0.81,-0.77,0,*42
1506193296.68,38249,14.19,73788.3,0.19,-0.77,-0.77,0,*41
1506193297.87,38250,14.19,73788.3,0.19,-0.81,-0.77,0,*40
1506193299.07,38251,14.19,73786.0,0.21,-0.77,-0.69,0,*4C
1506193300.25,38252,14.19,73788.0,0.19,-0.81,-0.77,0,*42
1506193301.45,38253,14.19,73794.3,0.19,-0.89,-0.81,0,*42
1506193302.63,38254,14.19,73786.5,0.19,-0.77,-0.77,0,*4D
1506193303.8,38255,14.19,73788.5,0.19,-0.69,-0.69,0,*4C
1506193304.98,38256,14.19,73788.5,0.19,-0.77,-0.69,0,*40
1506193306.16,38257,14.19,73788.5,0.19,-0.69,-0.69,0,*4E
1506193307.33,38258,14.19,73790.0,0.19,-0.77,-0.77,0,*41
1506193308.51,38259,14.19,73788.5,0.19,-0.81,-0.81,0,*40
1506193309.69,38260,14.19,73790.8,0.19,-0.81,-0.81,0,*4A
1506193310.88,38261,14.19,73786.8,0.19,-0.81,-0.77,0,*42
1506193312.06,38262,14.19,73784.5,0.19,-0.81,-0.81,0,*48
1506193313.28,38263,14.19,73794.8,0.17,-0.85,-0.81,0,*43
1506193314.48,38264,14.19,73790.0,0.17,-0.73,-0.81,0,*4D
1506193315.68,38265,14.19,73788.5,0.17,-0.81,-0.73,0,*4C
1506193316.88,38266,14.19,73788.5,0.17,-0.73,-0.73,0,*42
1506193318.09,38267,14.19,73790.8,0.17,-0.73,-0.73,0,*43
1506193319.29,38268,14.19,73786.8,0.17,-0.81,-0.73,0,*41
1506193320.49,38269,14.19,73790.3,0.17,-0.73,-0.73,0,*4D
1506193321.7,38270,14.19,73788.3,0.17,-0.73,-0.73,0,*45
1506193322.9,38271,14.19,73786.5,0.17,-0.73,-0.81,0,*49
1506193324.1,38272,14.19,73788.0,0.17,-0.73,-0.73,0,*47
1506193325.28,38273,14.19,73792.3,0.15,-0.81,-0.73,0,*49
1506193326.47,38274,14.19,73788.3,0.15,-0.81,-0.81,0,*43
1506193327.67,38275,14.19,73786.8,0.17,-0.81,-0.73,0,*4D
1506193328.87,38276,14.19,73790.0,0.17,-0.81,-0.73,0,*4E
1506193330.07,38277,14.19,73788.5,0.17,-0.81,-0.73,0,*4F
1506193331.28,38278,14.19,73788.5,0.17,-0.73,-0.73,0,*4D
1506193332.46,38279,14.19,73790.0,0.15,-0.73,-0.73,0,*4E
1506193333.65,38280,14.19,73790.5,0.15,-0.73,-0.73,0,*48
1506193334.83,38281,14.19,73788.3,0.15,-0.73,-0.69,0,*42
1506193336.01,38282,14.19,73786.5,0.15,-0.73,-0.73,0,*4A
1506193337.21,38283,14.19,73788.0,0.17,-0.73,-0.73,0,*49
1506193338.4,38284,14.19,73790.8,0.15,-0.81,-0.73,0,*41
1506193339.58,38285,14.19,73790.5,0.15,-0.73,-0.73,0,*4D
1506193340.76,38286,14.19,73786.5,0.15,-0.73,-0.69,0,*45
1506193341.94,38287,14.19,73788.5,0.15,-0.69,-0.69,0,*4F
1506193343.13,38288,14.19,73790.0,0.17,-0.61,-0.69,0,*4A
1506193344.33,38289,14.19,73794.0,0.17,-0.73,-0.61,0,*40
1506193345.5,38290,14.19,73790.0,0.15,-0.73,-0.61,0,*4A
1506193346.7,38291,14.19,73788.3,0.17,-0.73,-0.69,0,*41
1506193347.88,38292,14.19,73788.5,0.15,-0.81,-0.69,0,*4D
1506193349.06,38293,14.19,73790.8,0.15,-0.73,-0.69,0,*41
1506193350.24,38294,14.19,73790.5,0.15,-0.73,-0.69,0,*46
1506193351.44,38295,14.19,73790.5,0.17,-0.69,-0.69,0,*4E
1506193352.61,38296,14.19,73790.8,0.15,-0.69,-0.61,0,*47
1506193353.79,38297,14.19,73792.0,0.15,-0.73,-0.61,0,*4D
1506193354.96,38298,14.19,73792.8,0.15,-0.61,-0.61,0,*41
1506193356.13,38299,14.19,73794.0,0.15,-0.69,-0.61,0,*48
1506193357.3,38300,14.19,73790.3,0.15,-0.69,-0.61,0,*49
1506193358.48,38301,14.19,73786.0,0.15,-0.69,-0.69,0,*40
1506193359.66,38302,14.19,73794.0,0.15,-0.69,-0.69,0,*43
1506193360.83,38303,14.19,73786.3,0.15,-0.69,-0.61,0,*4A
1506193362.0,38304,14.19,73790.5,0.15,-0.69,-0.61,0,*4D
1506193363.2,38305,14.19,73788.8,0.17,-0.69,-0.57,0,*4B
1506193364.38,38306,14.19,73790.3,0.15,-0.69,-0.57,0,*4A
1506193365.55,38307,14.19,73790.0,0.15,-0.61,-0.57,0,*43
1506193366.72,38308,14.19,73784.8,0.15,-0.61,-0.57,0,*4C
1506193367.92,38309,14.19,73788.5,0.13,-0.65,-0.61,0,*4A
1506193369.11,38310,14.19,73790.3,0.13,-0.61,-0.45,0,*40
1506193370.32,38311,14.19,73786.3,0.13,-0.37,-0.15,0,*47
1506193371.51,38312,14.19,73788.8,0.15,-0.11,0.13,0,*6D
1506193372.72,38313,14.19,73784.3,0.17,0.05,0.21,0,*77
1506193373.93,38314,14.19,73788.8,0.17,0.05,0.21,0,*70
1506193375.16,38315,14.19,73786.5,0.17,0.13,0.21,0,*46
1506193376.4,38316,14.19,73788.8,0.17,0.13,0.21,0,*45
1506193377.58,38317,14.19,73790.5,0.19,0.09,0.25,0,*75
1506193378.77,38318,14.19,73788.0,0.19,0.05,0.21,0,*72
1506193379.95,38319,14.19,73788.3,0.19,-0.03,0.17,0,*5D
1506193381.14,38320,14.19,73792.3,0.19,0.05,0.17,0,*7C
1506193382.32,38321,14.19,73794.0,0.19,-0.03,0.17,0,*56
1506193383.53,38322,14.19,73788.3,0.21,-0.07,0.17,0,*5A
1506193384.74,38323,14.19,73788.5,0.21,-0.07,0.17,0,*5B
1506193385.93,38324,14.19,73788.5,0.21,-0.03,0.09,0,*67
1506193387.12,38325,14.19,73788.8,0.21,-0.07,0.09,0,*62
1506193388.29,38326,14.19,73788.8,0.19,-0.19,0.05,0,*59
1506193389.46,38327,14.19,73788.0,0.19,-0.15,0.09,0,*58
1506193390.65,38328,14.19,73788.3,0.21,-0.19,0.05,0,*5C
1506193391.87,38329,14.19,73788.8,0.21,-0.27,-0.03,0,*7B
1506193393.04,38330,14.19,73790.0,0.19,-0.15,-0.03,0,*79
1506193394.2,38331,14.19,73788.5,0.23,-0.03,0.01,0,*69
1506193395.38,38332,14.19,73788.3,0.23,-0.11,0.09,0,*51
1506193396.55,38333,14.19,73790.5,0.23,-0.11,-0.03,0,*77
1506193397.75,38334,14.19,73788.5,0.21,-0.15,-0.03,0,*76
1506193398.94,38335,14.19,73790.3,0.21,-0.15,-0.03,0,*77
1506193400.14,38336,14.19,73790.8,0.21,-0.15,-0.03,0,*74
1506193401.33,38337,14.19,73786.5,0.21,-0.15,-0.03,0,*75
1506193402.5,38338,14.19,73788.3,0.19,-0.15,0.05,0,*5A
1506193403.69,38339,14.19,73790.8,0.21,-0.15,0.05,0,*50
1506193404.91,38340,14.19,73786.5,0.21,-0.27,0.05,0,*5F
1506193406.13,38341,14.19,73788.5,0.21,-0.27,0.05,0,*5E
1506193407.32,38342,14.19,73788.8,0.21,-0.19,-0.03,0,*7B
1506193408.52,38343,14.19,73784.8,0.21,-0.15,-0.03,0,*76
1506193409.72,38344,14.19,73788.0,0.21,-0.19,-0.03,0,*7D
1506193410.91,38345,14.19,73788.5,0.21,-0.19,-0.03,0,*7C
1506193412.13,38346,14.19,73786.5,0.21,-0.27,-0.03,0,*72
1506193413.3,38347,14.19,73784.5,0.19,-0.15,-0.03,0,*79
1506193414.5,38348,14.19,73788.0,0.21,-0.19,-0.03,0,*71
1506193415.7,38349,14.19,73790.3,0.21,-0.19,-0.03,0,*70
1506193416.9,38350,14.19,73790.0,0.21,-0.19,-0.03,0,*78
1506193418.09,38351,14.19,73788.8,0.21,-0.15,-0.07,0,*71
1506193419.28,38352,14.19,73788.8,0.21,-0.29,-0.03,0,*79
1506193420.5,38353,14.19,73788.5,0.21,-0.27,-0.03,0,*76
1506193421.72,38354,14.19,73790.3,0.21,-0.27,-0.07,0,*75
1506193422.92,38355,14.19,73790.0,0.21,-0.15,-0.03,0,*71
1506193424.11,38356,14.19,73790.8,0.21,-0.15,-0.07,0,*76
1506193425.3,38357,14.19,73788.3,0.21,-0.15,0.05,0,*58
1506193426.48,38358,14.19,73788.3,0.19,-0.19,0.05,0,*50
1506193427.67,38359,14.19,73784.5,0.21,-0.15,0.05,0,*56
1506193428.86,38360,14.19,73782.8,0.21,-0.15,0.05,0,*5C
1506193430.05,38361,14.19,73786.3,0.21,-0.15,0.05,0,*5D
1506193431.22,38362,14.19,73784.8,0.19,-0.15,0.05,0,*55
1506193432.39,38363,14.19,73788.0,0.19,-0.15,0.05,0,*54
1506193433.59,38364,14.19,73786.0,0.21,-0.15,0.05,0,*58
1506193434.76,38365,14.19,73786.3,0.19,-0.19,0.05,0,*5E
1506193435.93,38366,14.19,73788.0,0.19,-0.15,0.09,0,*5D
1506193437.09,38367,14.19,73790.3,0.19,-0.15,0.09,0,*5C
1506193438.26,38368,14.19,73788.8,0.19,-0.07,0.05,0,*6C
1506193439.44,38369,14.19,73788.0,0.21,-0.03,0.09,0,*6E
1506193440.65,38370,14.19,73786.5,0.21,0.09,0.25,0,*7F
1506193441.86,38371,14.19,73788.8,0.21,0.09,0.25,0,*7E
1506193443.04,38372,14.25,73790.8,0.19,0.09,0.25,0,*76
1506193444.25,38373,14.19,73788.3,0.21,0.09,0.37,0,*7F
1506193445.46,38374,14.19,73788.5,0.21,0.09,0.37,0,*78
1506193446.66,38375,14.19,73790.3,0.21,0.09,0.33,0,*7D
1506193447.85,38376,14.19,73788.0,0.23,0.09,0.37,0,*78
1506193449.05,38377,14.19,73788.0,0.21,0.09,0.25,0,*78
1506193450.26,38378,14.19,73790.0,0.21,0.05,0.21,0,*7F
1506193451.48,38379,14.19,73788.0,0.21,0.09,0.21,0,*72
1506193452.66,38380,14.19,73788.0,0.23,0.09,0.29,0,*7E
1506193453.85,38381,14.19,73786.0,0.23,0.09,0.29,0,*7F
1506193455.05,38382,14.19,73786.0,0.21,0.05,0.17,0,*7F
1506193456.26,38383,14.19,73788.0,0.21,0.05,0.17,0,*7E
1506193457.44,38384,14.19,73788.0,0.23,0.09,0.29,0,*7A
1506193458.63,38385,14.19,73790.0,0.23,0.09,0.21,0,*73
1506193459.84,38386,14.19,73788.0,0.27,0.17,0.29,0,*43
1506193461.04,38387,14.19,73788.3,0.27,0.13,0.33,0,*4D
1506193462.24,38388,14.19,73788.0,0.27,0.13,0.25,0,*45
1506193463.45,38389,14.19,73788.8,0.23,0.13,0.29,0,*4C
1506193464.66,38390,14.19,73790.8,0.23,0.13,0.29,0,*44
1506193465.87,38391,14.19,73786.5,0.23,0.13,0.21,0,*4D
1506193467.07,38392,14.19,73788.3,0.23,0.13,0.25,0,*4A
1506193468.28,38393,14.19,73790.0,0.23,0.13,0.29,0,*47
1506193469.49,38394,14.19,73790.5,0.27,0.25,0.33,0,*4A
1506193470.69,38395,14.19,73790.5,0.23,0.25,0.33,0,*4F
1506193471.9,38396,14.19,73788.3,0.27,0.17,0.33,0,*49
1506193473.1,38397,14.19,73786.8,0.27,0.17,0.29,0,*43
1506193474.31,38398,14.19,73784.0,0.23,0.13,0.29,0,*4C
1506193475.49,38399,14.19,73788.3,0.23,0.09,0.25,0,*7A
1506193476.7,38400,14.19,73786.8,0.27,0.17,0.33,0,*41
1506193477.88,38401,14.19,73788.8,0.23,0.09,0.21,0,*78
1506193479.09,38402,14.19,73786.8,0.27,0.17,0.25,0,*44
1506193480.31,38403,14.19,73790.3,0.29,0.17,0.33,0,*4C
1506193481.52,38404,14.19,73786.5,0.27,0.17,0.25,0,*42
1506193482.72,38405,14.19,73788.5,0.27,0.17,0.33,0,*44
1506193483.93,38406,14.19,73788.5,0.27,0.17,0.29,0,*4C
1506193485.15,38407,14.19,73788.0,0.29,0.13,0.33,0,*4C
1506193486.36,38408,14.19,73788.8,0.27,0.17,0.29,0,*42
1506193487.57,38409,14.19,73786.0,0.27,0.13,0.29,0,*47
1506193488.77,38410,14.19,73786.0,0.27,0.13,0.25,0,*43
1506193489.98,38411,14.25,73790.8,0.27,0.13,0.25,0,*42
1506193491.18,38412,14.19,73786.0,0.27,0.13,0.29,0,*4D
1506193492.41,38413,14.19,73790.5,0.29,0.13,0.25,0,*4E
1506193493.59,38414,14.19,73788.5,0.27,0.05,0.25,0,*70
1506193494.8,38415,14.19,73790.3,0.27,0.13,0.25,0,*46
1506193496.0,38416,14.19,73786.3,0.27,0.17,0.25,0,*41
1506193497.2,38417,14.19,73786.0,0.27,0.17,0.25,0,*40
1506193498.42,38418,14.19,73788.5,0.23,0.13,0.21,0,*4B
1506193499.62,38419,14.25,73790.0,0.27,0.17,0.29,0,*42
1506193500.82,38420,14.19,73786.5,0.27,0.17,0.25,0,*44
1506193502.03,38421,14.19,73788.5,0.27,0.13,0.25,0,*41
1506193503.24,38422,14.19,73786.3,0.27,0.17,0.29,0,*4A
1506193504.44,38423,14.19,73788.5,0.27,0.17,0.25,0,*47
1506193505.64,38424,14.19,73790.3,0.27,0.25,0.33,0,*46
1506193506.85,38425,14.19,73788.3,0.27,0.25,0.33,0,*47
1506193508.06,38426,14.19,73788.0,0.27,0.25,0.25,0,*43
1506193509.29,38427,14.19,73784.8,0.29,0.25,0.25,0,*4C
1506193510.52,38428,14.25,73788.8,0.29,0.17,0.25,0,*42
1506193511.72,38429,14.19,73788.3,0.31,0.21,0.29,0,*43
1506193512.95,38430,14.19,73788.8,0.29,0.13,0.25,0,*4F
1506193514.18,38431,14.19,73790.0,0.29,0.13,0.25,0,*4E
1506193515.41,38432,14.19,73786.3,0.29,0.13,0.17,0,*4C
1506193516.63,38433,14.19,73786.5,0.29,0.13,0.17,0,*4D
1506193517.86,38434,14.19,73784.8,0.29,0.13,0.17,0,*4A
1506193519.09,38435,14.19,73786.8,0.29,0.17,0.17,0,*4F
1506193520.31,38436,14.19,73790.3,0.29,0.17,0.17,0,*4C
1506193521.52,38437,14.19,73788.0,0.31,0.17,0.21,0,*41
1506193522.75,38438,14.19,73784.0,0.29,0.13,0.17,0,*46
1506193523.98,38439,14.19,73794.3,0.29,0.17,0.17,0,*43
1506193525.2,38440,14.19,73792.0,0.29,0.13,0.17,0,*49
1506193526.43,38441,14.25,73790.8,0.29,0.17,0.25,0,*4D
1506193527.66,38442,14.19,73788.3,0.29,0.13,0.17,0,*4B
1506193528.86,38443,14.19,73786.0,0.31,0.17,0.29,0,*4A
1506193530.09,38444,14.25,73790.5,0.29,0.17,0.25,0,*48
1506193531.31,38445,14.19,73788.3,0.29,0.13,0.17,0,*4C
1506193532.54,38446,14.19,73788.8,0.29,0.13,0.17,0,*4F
1506193533.77,38447,14.19,73790.5,0.29,0.13,0.17,0,*4E
1506193535.0,38448,14.19,73790.8,0.29,0.13,0.17,0,*41
1506193536.22,38449,14.19,73790.3,0.29,0.13,0.13,0,*44
1506193537.4,38450,14.19,73788.5,0.31,0.09,0.17,0,*7A
1506193538.6,38451,14.19,73788.3,0.29,0.01,0.13,0,*7E
1506193539.83,38452,14.19,73790.3,0.29,0.13,0.13,0,*4E
1506193541.03,38453,14.19,73790.8,0.29,0.05,0.17,0,*7C
1506193542.26,38454,14.19,73790.8,0.29,0.13,0.17,0,*4C
1506193543.49,38455,14.19,73788.3,0.29,0.13,0.17,0,*4D
1506193544.67,38456,14.19,73788.0,0.27,0.05,0.17,0,*77
1506193545.84,38457,14.19,73788.8,0.27,0.01,0.13,0,*76
1506193547.03,38458,14.25,73790.8,0.27,0.05,0.13,0,*7D
1506193548.21,38459,14.19,73790.0,0.27,0.05,0.13,0,*7C
1506193549.38,38460,14.19,73790.3,0.27,0.01,0.17,0,*76
1506193550.57,38461,14.19,73790.5,0.27,0.05,0.17,0,*73
1506193551.72,38462,14.19,73784.5,0.27,0.01,0.05,0,*47
1506193552.89,38463,14.25,73790.8,0.27,0.01,0.17,0,*75
1506193554.07,38464,14.19,73794.3,0.27,0.01,0.13,0,*76
1506193555.23,38465,14.19,73788.0,0.27,0.05,0.05,0,*44
1506193556.41,38466,14.19,73788.0,0.27,0.01,0.13,0,*74
1506193557.59,38467,14.19,73790.3,0.27,0.05,0.13,0,*71
1506193558.79,38468,14.19,73792.8,0.29,0.01,0.13,0,*74
1506193559.99,38469,14.19,73790.0,0.29,0.05,0.13,0,*71
1506193561.15,38470,14.19,73788.5,0.27,0.05,0.05,0,*40
1506193562.33,38471,14.19,73792.0,0.27,0.01,0.13,0,*72
1506193563.51,38472,14.19,73788.8,0.27,0.01,0.13,0,*71
1506193564.68,38473,14.19,73788.3,0.27,0.01,0.13,0,*70
1506193565.86,38474,14.19,73790.5,0.27,0.01,0.13,0,*77
1506193567.03,38475,14.25,73790.8,0.27,0.01,0.17,0,*72
1506193568.22,38476,14.19,73788.3,0.27,0.05,0.13,0,*71
1506193569.4,38477,14.19,73788.8,0.27,0.05,0.13,0,*70
1506193570.58,38478,14.19,73788.3,0.27,0.05,0.13,0,*7F
1506193571.78,38479,14.19,73786.5,0.27,0.17,0.13,0,*4D
1506193572.99,38480,14.19,73788.3,0.27,0.13,0.13,0,*4F
1506193574.17,38481,14.19,73790.5,0.23,0.13,0.09,0,*71
1506193575.4,38482,14.19,73788.3,0.29,0.13,0.13,0,*43
1506193576.6,38483,14.19,73790.5,0.27,0.17,0.13,0,*48
1506193577.78,38484,14.25,73790.0,0.27,0.05,0.13,0,*7C
1506193578.99,38485,14.19,73788.5,0.29,0.05,0.13,0,*73
1506193580.17,38486,14.19,73786.8,0.29,0.05,0.05,0,*47
1506193581.37,38487,14.25,73794.3,0.29,0.01,0.17,0,*71
1506193582.55,38488,14.19,73790.8,0.27,0.01,0.13,0,*74
1506193583.71,38489,14.19,73790.0,0.27,0.05,0.05,0,*46
1506193584.87,38490,14.19,73790.0,0.27,0.05,0.05,0,*4E
1506193586.02,38491,14.19,73788.5,0.27,0.01,0.01,0,*4F
1506193587.17,38492,14.25,73790.8,0.27,0.01,0.05,0,*48
1506193588.32,38493,14.19,73784.5,0.27,0.01,0.01,0,*4D
1506193589.48,38494,14.19,73788.5,0.27,0.01,0.05,0,*4E
1506193590.63,38495,14.25,73788.3,0.27,0.01,0.01,0,*4B
1506193591.78,38496,14.19,73788.8,0.27,0.01,0.05,0,*4C
1506193592.93,38497,14.19,73788.5,0.23,0.01,0.05,0,*49
1506193594.09,38498,14.19,73790.8,0.27,0.01,0.05,0,*42
1506193595.25,38499,14.19,73790.3,0.27,-0.07,0.05,0,*68
1506193596.41,38500,14.19,73790.0,0.27,-0.07,0.01,0,*6D
1506193597.58,38501,14.25,73790.8,0.27,-0.11,0.01,0,*5B
1506193598.75,38502,14.19,73790.5,0.23,-0.11,-0.03,0,*73
1506193599.92,38503,14.25,73788.5,0.27,-0.07,-0.07,0,*45
1506193601.09,38504,14.19,73790.0,0.23,-0.15,-0.03,0,*71
1506193602.28,38505,14.19,73786.3,0.23,-0.11,-0.11,0,*47
1506193603.45,38506,14.19,73786.3,0.27,-0.11,-0.07,0,*77
1506193604.63,38507,14.19,73786.5,0.27,-0.11,-0.07,0,*76
1506193605.81,38508,14.19,73786.0,0.27,-0.15,-0.11,0,*4A
1506193606.99,38509,14.19,73784.3,0.27,-0.11,-0.11,0,*4F
1506193608.17,38510,14.19,73784.0,0.23,-0.15,-0.11,0,*47
1506193609.35,38511,14.25,73788.0,0.27,-0.11,-0.07,0,*71
1506193610.53,38512,14.19,73788.3,0.27,-0.11,-0.11,0,*45
1506193611.71,38513,14.19,73784.3,0.27,-0.11,-0.11,0,*44
1506193612.9,38514,14.19,73786.8,0.23,-0.15,-0.11,0,*43
1506193614.1,38515,14.19,73790.3,0.23,-0.23,-0.15,0,*43
1506193615.27,38516,14.19,73788.3,0.27,-0.19,-0.07,0,*7E
1506193616.48,38517,14.19,73790.5,0.23,-0.23,-0.15,0,*41
1506193617.7,38518,14.25,73790.0,0.23,-0.27,-0.23,0,*4F
1506193618.9,38519,14.19,73792.3,0.23,-0.23,-0.15,0,*4F
1506193620.11,38520,14.19,73788.3,0.23,-0.27,-0.15,0,*41
1506193621.31,38521,14.19,73788.8,0.23,-0.23,-0.15,0,*44
1506193622.52,38522,14.25,73792.5,0.27,-0.23,-0.19,0,*4F
1506193623.74,38523,14.19,73786.0,0.23,-0.27,-0.23,0,*47
1506193624.96,38524,14.19,73784.8,0.23,-0.27,-0.23,0,*40
1506193626.18,38525,14.25,73788.8,0.23,-0.23,-0.23,0,*45
1506193627.43,38526,14.19,73784.8,0.21,-0.27,-0.27,0,*44
1506193628.68,38527,14.19,73790.5,0.21,-0.27,-0.27,0,*45
1506193629.9,38528,14.19,73788.5,0.23,-0.27,-0.23,0,*4C
1506193631.12,38529,14.19,73784.5,0.23,-0.23,-0.27,0,*4D
1506193632.35,38530,14.19,73788.0,0.23,-0.27,-0.23,0,*45
1506193633.55,38531,14.19,73790.3,0.23,-0.27,-0.15,0,*41
1506193634.78,38532,14.25,73788.8,0.23,-0.27,-0.27,0,*43
1506193636.02,38533,14.25,73788.3,0.21,-0.27,-0.27,0,*40
1506193637.21,38534,14.19,73786.3,0.21,-0.29,-0.29,0,*47
1506193638.46,38535,14.25,73790.8,0.21,-0.27,-0.27,0,*46
1506193639.68,38536,14.19,73786.0,0.21,-0.29,-0.27,0,*4B
1506193640.9,38537,14.19,73788.8,0.23,-0.27,-0.27,0,*46
1506193642.11,38538,14.19,73788.3,0.21,-0.37,-0.37,0,*4B
1506193643.31,38539,14.19,73790.3,0.21,-0.37,-0.37,0,*4A
1506193644.51,38540,14.19,73790.3,0.21,-0.37,-0.37,0,*44
1506193645.71,38541,14.25,73790.5,0.21,-0.37,-0.37,0,*45
1506193646.92,38542,14.25,73792.8,0.21,-0.37,-0.37,0,*46
1506193648.1,38543,14.19,73788.0,0.19,-0.37,-0.41,0,*4D
1506193649.3,38544,14.19,73788.0,0.21,-0.37,-0.29,0,*4F
1506193650.48,38545,14.19,73786.8,0.19,-0.37,-0.41,0,*4B
1506193651.66,38546,14.25,73792.8,0.19,-0.41,-0.37,0,*48
1506193652.87,38547,14.25,73790.8,0.21,-0.37,-0.37,0,*43
1506193654.05,38548,14.19,73788.5,0.19,-0.37,-0.37,0,*47
1506193655.25,38549,14.25,73792.0,0.21,-0.37,-0.41,0,*4C
1506193656.46,38550,14.25,73792.5,0.21,-0.41,-0.37,0,*44
1506193657.64,38551,14.25,73790.5,0.19,-0.37,-0.37,0,*4F
1506193658.84,38552,14.19,73788.0,0.21,-0.41,-0.37,0,*46
1506193660.02,38553,14.19,73788.3,0.19,-0.37,-0.37,0,*4D
1506193661.21,38554,14.19,73790.0,0.19,-0.41,-0.37,0,*4B
1506193662.39,38555,14.19,73788.3,0.19,-0.37,-0.41,0,*4A
1506193663.58,38556,14.19,73790.0,0.19,-0.41,-0.41,0,*48
1506193664.76,38557,14.19,73790.0,0.19,-0.41,-0.37,0,*48
1506193665.95,38558,14.19,73788.0,0.19,-0.41,-0.41,0,*46
1506193667.13,38559,14.19,73788.5,0.19,-0.41,-0.37,0,*46
1506193668.31,38560,14.19,73786.8,0.19,-0.41,-0.37,0,*4C
1506193669.5,38561,14.19,73788.0,0.19,-0.41,-0.37,0,*4D
1506193670.7,38562,14.25,73788.5,0.21,-0.37,-0.41,0,*45
1506193671.89,38563,14.19,73790.8,0.19,-0.41,-0.41,0,*4E
1506193673.07,38564,14.19,73790.3,0.19,-0.41,-0.41,0,*49
1506193674.27,38565,14.25,73792.0,0.17,-0.41,-0.45,0,*42
1506193675.48,38566,14.25,73790.0,0.17,-0.41,-0.41,0,*45
1506193676.69,38567,14.25,73790.8,0.17,-0.41,-0.41,0,*44
1506193677.86,38568,14.19,73792.0,0.19,-0.29,-0.37,0,*4A
1506193679.05,38569,14.19,73788.8,0.19,-0.41,-0.41,0,*44
1506193680.24,38570,14.25,73792.8,0.19,-0.41,-0.41,0,*4C
1506193681.42,38571,14.25,73788.5,0.19,-0.41,-0.37,0,*4C
1506193682.61,38572,14.19,73790.8,0.15,-0.41,-0.41,0,*42
1506193683.81,38573,14.19,73788.5,0.17,-0.45,-0.41,0,*45
1506193685.01,38574,14.25,73790.0,0.17,-0.45,-0.45,0,*46
1506193686.2,38575,14.19,73788.8,0.17,-0.45,-0.45,0,*47
1506193687.4,38576,14.19,73790.5,0.17,-0.41,-0.53,0,*47
1506193688.61,38577,14.25,73792.5,0.17,-0.41,-0.41,0,*45
1506193689.8,38578,14.19,73788.8,0.17,-0.45,-0.45,0,*4A
1506193691.0,38579,14.19,73788.8,0.17,-0.45,-0.45,0,*4B
1506193692.18,38580,14.19,73784.5,0.15,-0.45,-0.45,0,*4F
1506193693.36,38581,14.19,73788.8,0.15,-0.41,-0.45,0,*4A
1506193694.54,38582,14.19,73790.5,0.15,-0.45,-0.41,0,*49
1506193695.72,38583,14.25,73792.5,0.15,-0.45,-0.45,0,*4C
1506193696.91,38584,14.19,73786.5,0.17,-0.45,-0.45,0,*49
1506193698.09,38585,14.25,73790.3,0.15,-0.45,-0.45,0,*4A
1506193699.27,38586,14.19,73790.8,0.15,-0.45,-0.41,0,*4D
1506193700.47,38587,14.19,73788.3,0.17,-0.45,-0.45,0,*4A
1506193701.65,38588,14.25,73790.8,0.15,-0.41,-0.45,0,*43
1506193702.86,38589,14.25,73794.0,0.17,-0.41,-0.41,0,*44
1506193704.05,38590,14.25,73788.3,0.17,-0.45,-0.45,0,*4C
1506193705.24,38591,14.25,73794.0,0.15,-0.41,-0.41,0,*4F
1506193706.42,38592,14.25,73794.3,0.15,-0.45,-0.41,0,*48
1506193707.6,38593,14.19,73790.8,0.15,-0.53,-0.45,0,*4A
1506193708.8,38594,14.25,73790.8,0.17,-0.53,-0.53,0,*48